STARLINK-34014, 63942

Orbit data source: Space-Track

STARLINK-34014, 63942 is a payload satellite owned by SpaceX/Seattle (US) in LEO that was launched on Tue, 13 May 2025 UTC via an FALCON 9 launch vehicle from the Air Force Western Test Range (AFWTR). Payload-class satellites include a variety of spacecraft equipped with specific instruments for various scientific and technological missions. These include communications satellites like Starlink; space stations such as the ISS; scientific satellites like the Hubble; Earth observation satellites from companies like Planet Labs, Umbra, and HawkEye 360; GPS; miniature CubeSats for education and research; and military/defense satellites.

Loading next visibility...
Identifier
63942, 2025-098S
Orbit
LEO
Country
Flag of USUS
Related business
Manufacturer
SpaceX/Seattle
Mission
Operational Commercial Communications
Bus & Motor
STARLINK V2MO, Unknown motor
Mass
575 kg wet, ~530 kg dry
Launch date (UTC)
2025-05-13 (7 months ago)
Launch vehicle
FALCON 9
Launch site
Air Force Western Test Range (AFWTR)
Object type
Payload
Rocket body
Debris
Shape & HBR
Box + 2 Pan, 17.7 m
Radar Cross Section
36.964 m², Large (>1 m²)

Expand to show TLE details & history
Last TLE update: 7 hours ago

TLE from 7 hours ago
0 STARLINK-34014
1 63942U 25098S   25347.00009259 -.00034004  00000-0 -28540-2 0  9998
2 63942  70.0005 133.0026 0003504 278.9369 234.4362 14.98353257  5735
Epoch: 2025-12-13T00:00Z
TLE epoch observation values (Epoch: 2025-12-13T00:00:07.999Z)
Latitude
24.97859°
Longitude
-138.67233°
Altitude
575.913 km
Speed
7.575 km/s
True Right ascension
20h 13m 10s
True Declination
24° 50' 38"
Sunlit
Object was in daylight at epoch
Visualization orbit readout
Latitude
Unknown
Longitude
Unknown
Altitude
Unknown
Speed
Unknown
Apparent Right ascension
Unknown
Apparent Declination
Unknown
Sunlit
N/A
Visualization observer readout
Local Sidereal Time
05:23:34
Azimuth
Unknown
Elevation
Unknown
Doppler factor
Unknown
Orbital elements
Apogee altitude
572.367 km
Perigee altitude
567.498 km
Semi-major axis
6,948.069 km
Eccentricity
0.00035
Inclination
70.0005°
RAAN
133.0026°
Arg. of periapsis
278.9369°
True anomaly
234.40355°
Mean anomaly
234.4362°
Eccentric anomaly
234.41987°
Mean motion
3.74755 °/min
Orbital period
96.06 mins
BSTAR
-0.002854
Loading maneuver chart data...
Computing Atmospheric mass density...
Loading historical data...
Loading historical data...
Loading historical data...
Loading historical data...
Loading historical data...
Loading historical data...
Loading historical data...

Documentation

Showing up to 5 results
|